Flag for Egypt Weather past 2 weeks in Al Jizah, Egypt

Now
79 °F

Clear.


Feels Like: 82 °F
Forecast: 73 / 97 °F
Wind: 6 mph from Northeast

Location: Cairo Airport

Current Time: Aug 29, 2015 at 6:09:58 AM

Latest Report: Aug 29, 2015 at 5:00 AM


Visibility: 4 mi

Pressure: 29.89 "Hg

Humidity: 84%

Dew point: 73 °F

Location of Al JizahLocation

Historic Weather in Al Jizah — Graph

°F

Al Jizah temperature yesterday

Maximum temperature yesterday: 95 °F (at 2:00 PM)
Minimum temperature yesterday: 77 °F (at 4:30 AM)
Average temperature yesterday: 86 °F

Past Weeks' High & Low Weather Summary

 TemperatureHumidityPressure
High108 °F (Aug 16, 1:00 PM)89% (Aug 17, 4:30 AM)29.92 "Hg (Aug 17, 4:30 AM)
Low75 °F (Aug 20, 5:00 AM)13% (Aug 15, 1:30 PM)29.71 "Hg (Aug 16, 1:30 AM)
Average87 °F56%29.82 "Hg
* Reported Aug 14 4:00 AM — Aug 29 4:34 AM, Al Jizah, Weather by CustomWeather, © 2015

Note: Actual official high and low records may vary slightly from our data, if they occured in-between our weather recording intervals... More about our weather records

Advertising

Al Jizah weather history for previous 24 hours

 ConditionsComfort  
Time TempWeatherWind HumidityBarometerVisibility
4:34 AM
Sat, Aug 29
77 °FClear.No wind83%29.89 "Hg4 mi
4:00 AM77 °FClear.No wind83%29.89 "Hg10 mi
3:30 AM79 °FClear.5 mph84%29.89 "Hg10 mi
3:00 AM79 °FClear.5 mph84%29.89 "Hg10 mi
2:30 AM81 °FClear.No wind84%29.89 "Hg10 mi
2:00 AM81 °FClear.No wind84%29.89 "Hg10 mi
1:30 AM79 °FClear.5 mph74%29.92 "Hg10 mi
1:00 AM79 °FClear.5 mph74%29.92 "Hg10 mi
12:00 AM81 °FClear.6 mph70%29.92 "Hg10 mi
11:30 PM
Fri, Aug 28
82 °FClear.6 mph62%29.92 "Hg10 mi
11:00 PM84 °FClear.7 mph66%29.92 "Hg10 mi
10:30 PM82 °FClear.7 mph62%29.92 "Hg10 mi
10:00 PM84 °FClear.10 mph55%29.92 "Hg10 mi
9:30 PM84 °FClear.9 mph51%29.92 "Hg10 mi
9:00 PM86 °FClear.9 mph43%29.92 "Hg10 mi
8:30 PM86 °FClear.9 mph40%29.89 "Hg10 mi
8:00 PM88 °FClear.9 mph35%29.89 "Hg10 mi
7:30 PM90 °FClear.9 mph31%29.89 "Hg10 mi
7:00 PM91 °FClear.9 mph34%29.89 "Hg10 mi
6:30 PM91 °FClear.9 mph34%29.89 "Hg10 mi
6:00 PM91 °FSunny.9 mph36%29.86 "Hg10 mi
5:30 PM93 °FSunny.9 mph30%29.86 "Hg10 mi
5:00 PM93 °FSunny.9 mph30%29.86 "Hg10 mi
4:30 PM93 °FSunny.8 mph28%29.86 "Hg10 mi
4:00 PM95 °FSunny.8 mph25%29.86 "Hg10 mi
3:30 PM95 °FSunny.8 mph25%29.86 "Hg10 mi
3:00 PM95 °FSunny.8 mph25%29.86 "Hg10 mi
2:30 PM95 °FSunny.8 mph25%29.89 "Hg10 mi
2:00 PM95 °FSunny.8 mph25%29.89 "Hg10 mi
1:30 PM93 °FSunny.7 mph28%29.89 "Hg10 mi
1:00 PM93 °FSunny.7 mph28%29.89 "Hg10 mi
12:30 PM91 °FSunny.7 mph38%29.89 "Hg10 mi
12:00 PM91 °FSunny.7 mph38%29.92 "Hg10 mi
11:30 AM90 °FSunny.7 mph49%29.92 "Hg10 mi
11:00 AM90 °FSunny.7 mph49%29.92 "Hg10 mi
10:30 AM88 °FSunny.5 mph49%29.92 "Hg10 mi
10:00 AM86 °FPassing clouds.5 mph55%29.92 "HgN/A
9:30 AM84 °FScattered clouds.5 mph62%29.92 "HgN/A
9:00 AM82 °FScattered clouds.6 mph70%29.92 "HgN/A
8:30 AM82 °FPartly sunny.5 mph70%29.92 "HgN/A
8:00 AM81 °FScattered clouds.5 mph79%29.92 "Hg4 mi
7:30 AM81 °FFog.5 mph79%29.92 "Hg2 mi
7:00 AM79 °FFog.5 mph89%29.92 "Hg2 mi
6:30 AM79 °FFog.3 mph84%29.89 "Hg2 mi
6:00 AM77 °FFog.5 mph89%29.89 "Hg2 mi
Weather by CustomWeather, © 2015

See weather overviewHow to use our weather pages